Regional Weather Roundup
Issued by NWS Charleston, SC

Current Version | Previous Version | Graphics & Text | Print | Product List | Glossary On
Versions: 1 2 3 4 5 6 7 8 9 10 11 12 13 14 15 16 17 18 19 20 21 22 23 24 25 26 27 28 29 30 31 32 33 34 35 36 37 38 39 40 41 42 43 44 45 46 47 48 49 50
000
ASUS42 KCHS 241928
RWRCHS

REGIONAL WEATHER ROUNDUP
NATIONAL WEATHER SERVICE CHARLESTON SC
300 PM EDT TUE MAY 24 2016

NOTE: "FAIR" INDICATES FEW OR NO CLOUDS BELOW 12,000 FEET WITH NO
SIGNIFICANT WEATHER AND/OR OBSTRUCTIONS TO VISIBILITY.

NOT ALL STATIONS ARE QUALITY CONTROLLED. USE DATA WITH CAUTION...
ESPECIALLY DEWPOINT OBSERVATIONS.

SCZ027-030-031-034>040-042>050-242000-
...SOUTHEAST SOUTH CAROLINA...

CITY           SKY/WX    TMP DP  RH WIND       PRES   REMARKS
N CHARLESTON   MOSUNNY   83  56  39 SW7       30.14F
WATERFRONT PRK   N/A     75  61  61 SE9       30.14S
MOUNT PLEASANT FAIR      79  57  47 SE9       30.14F
JOHNS ISLAND   FAIR      79  61  53 SE9       30.15F
PINOPOLIS        N/A     81  52  36 NE5       30.07F
MONCKS CORNER  FAIR      81  46  30 N3        30.13F
SUMMERVILLE    FAIR      84  59  42 S3        30.14F
BEAUFORT MCAS  MOSUNNY   83  63  50 CALM      30.14F
BEAUFORT ARPT  FAIR      79  61  53 S9        30.14F
HILTON HEAD IS MOSUNNY   81  63  54 S8        30.17F
WALTERBORO     PTCLDY    82  57  42 CALM      30.14F
ALLENDALE      FAIR      84  55  37 CALM      30.11F

...SOUTHERN MIDLANDS AND PEE DEE...

CITY           SKY/WX    TMP DP  RH WIND       PRES   REMARKS
GEORGETOWN     FAIR      77  52  41 SE7G16    30.15F
KINGSTREE      FAIR      81  46  30 W5        30.14S
ORANGEBURG     MOSUNNY   83  55  38 SW6       30.13F
BARNWELL       FAIR      84  57  39 CALM      30.13S
AIKEN          MOCLDY    79  52  38 CALM      30.16S
MANNING        FAIR      81  50  34 SW3       30.14F
COLUMBIA       CLOUDY    85  51  31 CALM      30.11F
SUMTER         SUNNY     80  52  37 VRB5      30.12F
FLORENCE       MOSUNNY   80  51  36 VRB6      30.14F
MYRTLE BEACH   MOSUNNY   79  54  41 S18       30.16F
N MYRTLE BEACH SUNNY     76  57  51 S16       30.15S

$$

GAZ063-065-086>088-099>101-113>116-118-119-134>141-150-242000-
...SOUTHEAST GEORGIA...

CITY           SKY/WX    TMP DP  RH WIND       PRES   REMARKS
SAVANNAH ARPT  MOSUNNY   80  62  54 SE10      30.14S
HUNTER AAF     SUNNY     81  67  63 SE13      30.12F
FORT STEWART   PTSUNNY   85  62  46 E9        30.10F
STATESBORO     MOSUNNY   87  57  35 N6        30.12F
SYLVANIA       PTCLDY    86  51  30 CALM      30.13F
CLAXTON        FAIR      86  55  33 SW3       30.12F

...CSRA...CENTRAL AND FAR SOUTHEAST GEORGIA...

CITY           SKY/WX    TMP DP  RH WIND       PRES   REMARKS
THOMSON        PTSUNNY   84  55  36 W8        30.17S
AUGUSTA-BUSH   MOSUNNY   83  55  38 NE8       30.11F
AUGUSTA-DANIEL MOSUNNY   85  52  32 MISG      30.13F
SWAINSBORO     MOCLDY    84  50  30 NW7       30.13F
VIDALIA        MOSUNNY   82  50  32 W5        30.13F
EASTMAN        FAIR      87  47  24 CALM      30.15F
HAZLEHURST     FAIR      88  48  24 CALM      30.12F
ALMA           SUNNY     87  52  29 VRB5      30.13F
WAYCROSS       SUNNY     86  53  31 S5        30.12F
JESUP          FAIR      82  48  30 CALM      30.13S
BAXLEY         FAIR      88  48  25 CALM      30.12F
BRUNSWICK      PTSUNNY   86  64  48 E13       30.15F
SAINT SIMONS   MOSUNNY   81  66  60 E14       30.15F

$$

SCZ027-028-034-036>038-045-046-048>050-GAZ119-141-242000-
...LAKE AND SUPPLEMENTAL COASTAL OBSERVATIONS...

STATION/POSITION TIME  TEMP    WIND        PRES    WAVE   SWELL
                       AIR SEA DIR/SP/G            HT/PER HT/PER/DIR
                 (UTC) (F)     (DEG/KT/KT) (MB)    (FT/S) (FT/S/D)
WINYAH BAY       1845   75     140/ 11     1020.0F
LAKE MURRAY      1900   82     170/  2/  4 1019.3F
ACE BASIN NERRS  1800   80     140/  2     1022.0S
FORT PULASKI     1900   75 76   80/ 10/ 12 1021.4F
SAPELO ISLAND    1900   84     110/  9     1021.0S

$$

ANZ835-935-AMZ111-154-330-350-352-354-370-450-454-472-242000-
...C-MAN AND BUOY OBSERVATIONS...

STATION/POSITION TIME  TEMP    WIND        PRES    WAVE   SWELL
                       AIR SEA DIR/SP/G            HT/PER HT/PER/DIR
                 (UTC) (F)     (DEG/KT/KT) (MB)    (FT/S) (FT/S/D)
BUOY 41004       NOT AVBL
BUOY 41008       1850   76 77  100/ 10/ 12 1021.4F   2/ 9   2/100/ 9
FOLLY BEACH CMAN 1900   74     150/  9/ 10 1021.4F
CAPERS NEARSHORE NOT AVBL
FRIPP NEARSHORE  NOT AVBL


STATION/POSITION TIME  TEMP    WIND        PRES    WAVE   SWELL
                       AIR SEA DIR/SP/G            HT/PER HT/PER/DIR
                 (UTC) (F)     (DEG/KT/KT) (MB)    (FT/S) (FT/S/D)
5E ST. MARYS GA  1821      79                N/A     2/ 9
FRYING PAN BUOY  1900   72 77  240/ 10/ 14 1021.5S
BUOY 41025       1850   72 79  240/ 14/ 17 1019.1F   4/ 9   3/ 80/ 9
CAPE LOOKOUT NC  1900   72     220/ 11/ 15 1019.4F
BUOY 41002       1850   73 78  340/  8/ 12 1021.0R   5/ 9   5/ 20/ 9
BUOY 41010       1820   78 78   60/ 10/ 10 1021.6S
ST AUGUSTINE FL  1900   78 81  120/ 11/ 12 1021.8S


$$




USA.gov is the U.S. government's official web portal to all federal, state and local government web resources and services.